EDT,Max TemperatureF,Mean TemperatureF,Min TemperatureF,Max Dew PointF,MeanDew PointF,Min DewpointF,Max Humidity, Mean Humidity, Min Humidity, Max Sea Level PressureIn, Mean Sea Level PressureIn, Min Sea Level PressureIn, Max VisibilityMiles, Mean VisibilityMiles, Min VisibilityMiles, Max Wind SpeedMPH, Mean Wind SpeedMPH, Max Gust SpeedMPH,PrecipitationIn, CloudCover, Events, WindDirDegrees
2013-7-1,68,62,59,59,52,43,90,67,52,30.08,30.02,29.95,10,10,7,14,9,22,0.18,6,Rain,26
2013-7-2,75,65,57,61,57,52,83,72,61,30.08,30.05,30.03,10,10,8,10,6,,0.00,7,,63
2013-7-3,81,70,59,67,61,56,90,73,50,30.10,30.07,30.05,10,9,5,12,4,,0.00,5,,159
2013-7-4,78,74,70,67,63,59,90,71,56,30.12,30.10,30.07,10,8,5,12,5,16,0.00,6,,220
2013-7-5,82,76,69,66,63,57,88,69,42,30.11,30.09,30.05,10,6,2,6,2,,0.00,6,,301
2013-7-6,82,76,69,68,66,63,90,75,56,30.11,30.06,29.99,10,9,6,12,3,,0.00,5,Fog-Rain,182
2013-7-7,80,74,69,69,67,65,94,83,64,30.04,30.01,29.96,10,9,6,10,4,,0.07,7,Rain,233
2013-7-8,82,76,69,72,68,64,94,86,71,30.03,30.00,29.98,10,7,0,21,6,28,0.81,7,Rain-Thunderstorm,202
2013-7-9,87,78,71,70,69,66,96,84,57,30.00,29.95,29.87,10,6,2,18,4,31,0.08,6,Rain-Thunderstorm,247
2013-7-10,88,78,66,73,69,55,100,79,49,29.94,29.83,29.77,10,7,1,17,7,24,0.72,6,Rain,260
2013-7-11,77,68,62,56,54,52,80,60,44,30.08,30.02,29.95,10,10,10,12,8,18,0.00,2,,356
2013-7-12,80,68,55,59,56,53,90,66,43,30.17,30.13,30.08,10,10,10,8,4,,0.00,1,,49
2013-7-13,82,71,61,63,58,53,87,62,39,30.22,30.19,30.15,10,10,10,10,5,,0.00,1,,100
2013-7-14,87,76,66,68,65,63,90,67,46,30.26,30.24,30.21,10,10,9,8,3,,0.00,2,,121
2013-7-15,89,79,71,74,71,68,94,77,61,30.31,30.27,30.24,10,9,5,13,3,,0.01,4,Rain-Thunderstorm,103
2013-7-16,91,82,73,74,73,72,93,74,53,30.31,30.27,30.24,10,9,5,9,3,,0.00,5,Rain,271
2013-7-17,91,83,75,74,72,70,84,70,50,30.27,30.22,30.15,10,10,8,14,7,20,0.00,2,,269
2013-7-18,93,83,75,74,71,67,79,65,46,30.16,30.06,29.95,10,10,10,15,7,21,0.00,2,,256
2013-7-19,93,82,71,73,69,64,83,69,42,29.94,29.80,29.71,10,8,1,36,11,60,0.40,4,Rain-Thunderstorm,245
2013-7-20,84,76,69,70,63,56,94,69,39,29.93,29.81,29.73,10,10,5,14,7,17,0.46,4,Rain,333
2013-7-21,81,72,63,60,57,51,81,62,48,30.01,29.97,29.93,10,10,10,8,5,,0.00,4,,48
2013-7-22,80,73,66,66,61,58,81,67,52,29.96,29.86,29.76,10,10,10,9,5,,0.00,5,Rain,146
2013-7-23,79,69,60,70,63,48,93,78,59,29.88,29.74,29.68,10,9,2,16,7,25,0.08,5,Rain-Thunderstorm,262
2013-7-24,71,64,57,50,48,46,77,61,46,30.06,29.99,29.89,10,10,10,14,9,18,0.00,5,,18
2013-7-25,75,63,51,55,50,47,92,62,40,30.12,30.09,30.05,10,10,10,7,1,,0.00,2,,183
2013-7-26,78,68,59,58,55,53,87,62,47,30.10,30.02,29.90,10,10,10,13,3,,0.00,5,,178
2013-7-27,73,64,55,63,60,50,88,83,73,29.91,29.81,29.74,10,9,2,16,7,20,0.31,7,Rain-Thunderstorm,212
2013-7-28,62,56,51,54,51,48,89,81,69,29.97,29.89,29.83,10,10,4,14,7,21,0.10,5,Rain,232
2013-7-29,68,60,55,55,53,51,88,75,61,30.18,30.07,29.98,10,10,10,15,7,,0.02,7,Rain,252
2013-7-30,77,64,53,59,54,51,93,68,42,30.23,30.18,30.13,10,10,10,9,3,,0.00,3,,212
2013-7-31,72,66,62,66,64,59,100,89,78,30.13,29.97,29.88,10,4,1,14,3,,0.37,8,Rain,121